AJ5TT Weather Reports


time (UTC)temp
C
wind
direction
speed
KPH
gust
KPH
rain 1hr
cm
rain 24hr
cm
rain mn
cm
humidity
%
barometer
mb
20220627204505 33 76 4.8 0.0 0.00 0.00 0.00 57 1015.6
20220627203003 33 67 3.2 0.0 0.00 0.00 0.00 55 1015.6
20220627201604 34 128 1.6 0.0 0.00 0.00 0.00 57 1016.2
20220627200059 35 110 0.0 0.0 0.00 0.00 0.00 56 1016.4
20220627194603 35 42 3.2 0.0 0.00 0.00 0.00 55 1016.6
20220627193056 35 51 4.8 0.0 0.00 0.00 0.00 55 1016.6
20220627191554 35 111 3.2 0.0 0.00 0.00 0.00 54 1016.9
20220627190058 36 9 3.2 0.0 0.00 0.00 0.00 53 1016.9
20220627184552 36 360 3.2 0.0 0.00 0.00 0.00 55 1017.0
20220627183051 36 28 1.6 0.0 0.00 0.00 0.00 52 1017.2
20220627181549 36 92 0.0 0.0 0.00 0.00 0.00 53 1017.3
20220627180048 36 20 3.2 0.0 0.00 0.00 0.00 53 1017.4
20220627174548 36 34 3.2 0.0 0.00 0.00 0.00 52 1017.5
20220627173046 36 12 3.2 0.0 0.00 0.00 0.00 52 1017.6
20220627171543 35 360 1.6 0.0 0.00 0.00 0.00 49 1017.7
20220627170040 35 313 4.8 0.0 0.00 0.00 0.00 45 1017.9
20220627164539 35 25 0.0 0.0 0.00 0.00 0.00 52 1018.1
20220627163038 34 279 1.6 0.0 0.00 0.00 0.00 52 1018.1
20220627161538 33 15 0.0 0.0 0.00 0.00 0.00 61 1018.2
20220627160031 33 60 0.0 0.0 0.00 0.00 0.00 66 1018.2
20220627154528 32 33 0.0 0.0 0.00 0.00 0.00 68 1018.3
20220627153023 31 279 0.0 0.0 0.00 0.00 0.00 70 1018.3
20220627151532 30 279 0.0 0.0 0.00 0.00 0.00 73 1018.5
20220627150019 30 279 0.0 0.0 0.00 0.00 0.00 75 1018.2
20220627144518 30 324 0.0 0.0 0.00 0.00 0.00 77 1018.3
20220627143014 30 323 0.0 0.0 0.00 0.00 0.00 78 1018.4
20220627141512 29 323 0.0 0.0 0.00 0.00 0.00 80 1018.5
20220627140007 28 325 0.0 0.0 0.00 0.00 0.00 80 1018.5
20220627134504 28 324 3.2 0.0 0.00 0.00 0.00 82 1018.5
20220627133003 28 38 0.0 0.0 0.00 0.00 0.00 85 1018.4
20220627131559 27 38 0.0 0.0 0.00 0.00 0.00 86 1018.3
20220627130055 27 38 0.0 0.0 0.00 0.00 0.00 88 1018.5
20220627124605 27 38 0.0 0.0 0.00 0.00 0.00 88 1018.2
20220627123052 26 73 0.0 0.0 0.00 0.00 0.00 88 1017.7
20220627121546 26 81 0.0 0.0 0.00 0.00 0.00 90 1017.6
20220627120103 26 90 0.0 0.0 0.00 0.00 0.00 90 1017.4
20220627114548 26 89 0.0 0.0 0.00 0.00 0.00 90 1017.4
20220627113041 26 89 0.0 0.0 0.00 0.00 0.00 90 1017.6
20220627111540 26 89 0.0 0.0 0.00 0.00 0.00 89 1017.6
20220627110040 26 89 0.0 0.0 0.00 0.00 0.00 89 1017.4
20220627104540 26 88 0.0 0.0 0.00 0.00 0.00 89 1017.5
20220627103040 26 88 0.0 0.0 0.00 0.00 0.00 88 1017.5
20220627101541 26 89 0.0 0.0 0.00 0.00 0.00 89 1017.6
20220627100039 26 88 0.0 0.0 0.00 0.00 0.00 88 1017.5
20220627094539 26 88 0.0 0.0 0.00 0.00 0.00 87 1017.4
20220627093100 26 88 0.0 0.0 0.00 0.00 0.00 87 1017.4
20220627091536 26 88 0.0 0.0 0.00 0.00 0.00 88 1017.3
20220627090037 26 88 0.0 0.0 0.00 0.00 0.00 88 1017.4
20220627084537 26 88 0.0 0.0 0.00 0.00 0.00 88 1017.5
20220627083040 26 88 0.0 0.0 0.00 0.00 0.00 90 1017.5
20220627081541 26 88 0.0 0.0 0.00 0.00 0.00 91 1017.4
20220627080034 26 88 0.0 0.0 0.00 0.00 0.00 90 1017.6
20220627074537 26 88 0.0 0.0 0.00 0.00 0.00 89 1017.8
20220627073037 26 88 0.0 0.0 0.00 0.00 0.00 89 1017.7
20220627071531 27 88 0.0 0.0 0.00 0.00 0.00 88 1017.7
20220627070030 27 88 0.0 0.0 0.00 0.00 0.00 87 1017.9
20220627064532 26 88 0.0 0.0 0.00 0.00 0.00 89 1018.0
20220627063036 26 184 0.0 0.0 0.00 0.00 0.00 88 1017.3
20220627061526 26 184 0.0 0.0 0.00 0.00 0.00 88 1017.3
20220627060025 26 184 0.0 0.0 0.00 0.00 0.00 88 1017.3
20220627054524 26 184 0.0 0.0 0.00 0.00 0.00 86 1017.3
20220627053022 26 184 0.0 0.0 0.00 0.00 0.00 87 1017.4
20220627051521 26 184 0.0 0.0 0.00 0.00 0.00 86 1017.4
20220627050019 27 184 0.0 0.0 0.00 0.00 0.00 85 1017.5
20220627044517 27 184 0.0 0.0 0.00 0.00 0.00 84 1017.5
20220627043017 27 184 0.0 0.0 0.00 0.00 0.00 83 1017.3
20220627041516 27 184 0.0 0.0 0.00 0.00 0.00 82 1017.0
20220627040018 27 184 0.0 0.0 0.00 0.00 0.00 82 1016.8
20220627034518 28 187 0.0 0.0 0.00 0.00 0.00 82 1016.7
20220627033014 28 176 0.0 0.0 0.00 0.00 0.00 81 1016.6
20220627031514 28 188 0.0 0.0 0.00 0.00 0.00 80 1016.6
20220627030014 28 195 0.0 0.0 0.00 0.00 0.00 80 1016.5
20220627024513 28 177 0.0 0.0 0.00 0.00 0.00 78 1016.3
20220627023011 29 194 1.6 0.0 0.00 0.00 0.00 77 1016.1
20220627021511 29 175 0.0 0.0 0.00 0.00 0.00 77 1016.1
20220627020010 29 172 1.6 0.0 0.00 0.00 0.00 75 1016.0
20220627014512 30 188 0.0 0.0 0.00 0.00 0.00 73 1015.7
20220627013022 30 183 1.6 0.0 0.00 0.00 0.00 72 1015.8
20220627011515 30 165 1.6 0.0 0.00 0.00 0.00 69 1015.7
20220627010009 31 180 0.0 0.0 0.00 0.00 0.00 67 1015.6
20220627004508 32 161 0.0 0.0 0.00 0.00 0.00 65 1015.6
20220627003007 32 154 0.0 0.0 0.00 0.00 0.00 61 1015.5
20220627001507 33 137 0.0 0.0 0.00 0.00 0.00 54 1015.2
20220627000007 33 144 0.0 0.0 0.00 0.00 0.00 50 1015.1
20220626234507 34 134 1.6 0.0 0.00 0.00 0.00 50 1015.3
20220626233006 35 173 3.2 0.0 0.00 0.00 0.00 52 1015.1
20220626231505 35 191 3.2 0.0 0.00 0.00 0.00 51 1015.0
20220626230009 36 167 1.6 0.0 0.00 0.00 0.00 49 1015.0
20220626224505 36 195 1.6 0.0 0.00 0.00 0.00 48 1014.9
20220626223007 36 88 1.6 0.0 0.00 0.00 0.00 48 1015.0
20220626221504 37 133 1.6 0.0 0.00 0.00 0.00 48 1015.1
20220626220100 37 115 1.6 0.0 0.00 0.00 0.00 48 1015.3
20220626214600 37 130 1.6 0.0 0.00 0.00 0.00 48 1015.3
20220626213057 38 144 0.0 0.0 0.00 0.00 0.00 47 1015.5
20220626211555 38 217 0.0 0.0 0.00 0.00 0.00 48 1015.6
20220626210055 37 94 0.0 0.0 0.00 0.00 0.00 49 1015.6